EW0890 Weather Reports


time (UTC)temp
C
wind
direction
speed
KPH
gust
KPH
rain 1hr
cm
rain 24hr
cm
rain mn
cm
humidity
%
barometer
mb
20260509112004 11 231 20.9 27.4 0.00 0.25 0.00 98 1005.6
20260509111520 11 248 22.5 27.4 0.00 0.25 0.00 98 1005.5
20260509111006 11 233 19.3 25.7 0.00 0.25 0.00 98 1005.7
20260509110504 11 244 17.7 22.5 0.00 0.25 0.00 98 1005.7
20260509110024 11 242 16.1 22.5 0.00 0.25 0.00 98 1005.7
20260509105508 11 234 17.7 22.5 0.00 0.25 0.00 98 1005.7
20260509105009 11 239 16.1 22.5 0.00 0.25 0.00 98 1005.8
20260509104505 11 248 17.7 22.5 0.00 0.25 0.00 98 1005.8
20260509104002 11 233 17.7 20.9 0.00 0.25 0.00 98 1005.9
20260509103502 11 251 16.1 20.9 0.00 0.25 0.00 98 1005.9
20260509103016 11 238 16.1 20.9 0.00 0.25 0.00 98 1006.0
20260509102505 11 254 12.9 19.3 0.00 0.25 0.00 98 1006.0
20260509102004 11 258 14.5 17.7 0.00 0.25 0.00 98 1005.9
20260509101516 11 248 12.9 19.3 0.00 0.25 0.00 98 1005.8
20260509101004 11 242 14.5 19.3 0.00 0.25 0.00 98 1005.8
20260509100506 11 243 12.9 19.3 0.00 0.25 0.00 98 1005.8
20260509100022 11 239 11.3 19.3 0.00 0.25 0.00 98 1005.9
20260509095507 11 231 14.5 17.7 0.00 0.25 0.00 98 1005.9
20260509095010 11 246 12.9 17.7 0.00 0.25 0.00 98 1005.9
20260509094524 11 239 12.9 17.7 0.00 0.25 0.00 98 1006.0
20260509094009 11 244 12.9 16.1 0.00 0.25 0.00 98 1006.0
20260509093508 11 245 11.3 17.7 0.00 0.25 0.00 98 1006.0
20260509093006 11 236 12.9 17.7 0.00 0.25 0.00 98 1006.1
20260509092507 11 239 12.9 17.7 0.00 0.25 0.00 97 1006.0
20260509092003 11 234 14.5 17.7 0.00 0.25 0.00 97 1005.9
20260509091512 11 243 12.9 19.3 0.00 0.25 0.00 97 1006.0
20260509091003 11 244 12.9 19.3 0.00 0.25 0.00 97 1005.9
20260509090507 11 249 14.5 19.3 0.00 0.25 0.00 97 1005.9
20260509090018 11 235 14.5 19.3 0.00 0.25 0.00 97 1005.9
20260509085503 11 238 14.5 19.3 0.00 0.25 0.00 97 1006.0
20260509085003 11 234 14.5 19.3 0.00 0.25 0.00 97 1006.1
20260509084533 11 226 9.7 12.9 0.00 0.25 0.00 97 1006.2
20260509084011 10 242 9.7 12.9 0.00 0.25 0.00 97 1006.1
20260509083507 10 236 9.7 14.5 0.00 0.25 0.00 97 1006.1
20260509083033 10 226 9.7 16.1 0.00 0.25 0.00 97 1006.1
20260509082511 11 227 9.7 16.1 0.00 0.25 0.00 97 1006.1
20260509082010 11 232 11.3 16.1 0.00 0.25 0.00 97 1006.1
20260509081528 11 230 9.7 16.1 0.00 0.25 0.00 97 1006.2
20260509081004 11 226 11.3 16.1 0.00 0.25 0.00 97 1006.2
20260509080503 11 236 11.3 16.1 0.00 0.25 0.00 97 1006.3
20260509080012 11 223 11.3 16.1 0.00 0.25 0.00 97 1006.2
20260509075504 11 223 11.3 16.1 0.00 0.25 0.00 97 1006.2
20260509075004 11 222 12.9 17.7 0.00 0.25 0.00 97 1006.2
20260509074516 11 227 12.9 17.7 0.00 0.25 0.00 97 1006.2
20260509074004 10 233 14.5 19.3 0.00 0.25 0.00 97 1006.2
20260509073507 10 223 12.9 19.3 0.00 0.25 0.00 97 1006.0
20260509073023 10 226 12.9 17.7 0.00 0.25 0.00 96 1006.2
20260509072508 10 231 14.5 19.3 0.00 0.25 0.00 96 1006.2
20260509072010 10 228 14.5 19.3 0.00 0.25 0.00 96 1006.2
20260509071522 10 207 14.5 19.3 0.00 0.25 0.00 96 1006.1
20260509071010 10 208 14.5 19.3 0.00 0.25 0.00 96 1006.0
20260509070026 10 212 14.5 19.3 0.00 0.25 0.00 95 1006.1
20260509065505 10 206 14.5 19.3 0.00 0.25 0.00 95 1006.2
20260509065003 10 210 12.9 19.3 0.00 0.25 0.00 95 1006.2
20260509064521 11 203 12.9 17.7 0.00 0.25 0.00 95 1006.4
20260509064006 10 224 12.9 16.1 0.00 0.25 0.00 95 1006.4
20260509063508 11 219 8.0 12.9 0.00 0.25 0.00 95 1006.4
20260509063017 11 242 8.0 11.3 0.00 0.25 0.00 95 1006.5
20260509062509 11 250 9.7 11.3 0.00 0.25 0.00 95 1006.5
20260509062009 11 250 8.0 11.3 0.00 0.25 0.00 95 1006.5
20260509061524 11 252 9.7 11.3 0.00 0.25 0.00 94 1006.4
20260509061007 11 245 9.7 11.3 0.00 0.25 0.00 94 1006.4
20260509060508 11 250 9.7 12.9 0.00 0.25 0.00 95 1006.5
20260509060025 11 248 9.7 14.5 0.00 0.25 0.00 94 1006.5
20260509055510 11 248 9.7 14.5 0.00 0.25 0.00 94 1006.6
20260509055008 11 248 9.7 12.9 0.00 0.25 0.00 94 1006.7
20260509054526 11 245 9.7 12.9 0.00 0.25 0.00 94 1006.7
20260509054005 11 240 8.0 12.9 0.00 0.25 0.00 93 1006.8
20260509053507 11 255 9.7 12.9 0.00 0.25 0.00 93 1006.9
20260509053016 11 248 11.3 14.5 0.00 0.25 0.00 93 1006.8
20260509052505 11 254 11.3 14.5 0.00 0.25 0.00 94 1006.9
20260509052008 11 240 11.3 14.5 0.00 0.25 0.00 94 1006.8
20260509051519 11 256 11.3 12.9 0.00 0.25 0.00 93 1006.9
20260509051007 11 252 9.7 11.3 0.00 0.25 0.00 93 1006.9
20260509050509 11 251 9.7 12.9 0.00 0.25 0.00 93 1007.0
20260509050035 11 255 9.7 12.9 0.00 0.25 0.00 93 1007.0
20260509045508 11 250 9.7 12.9 0.00 0.25 0.25 93 1007.0
20260509045011 11 243 9.7 12.9 0.00 0.25 0.25 93 1007.0
20260509044527 11 240 9.7 11.3 0.00 0.25 0.25 92 1007.1
20260509044012 11 272 8.0 12.9 0.00 0.25 0.25 92 1007.1
20260509043507 11 245 9.7 12.9 0.00 0.25 0.25 92 1007.0
20260509043032 11 257 9.7 14.5 0.00 0.25 0.25 92 1007.0
20260509042004 11 238 11.3 17.7 0.00 0.25 0.25 92 1006.9
20260509041004 11 221 11.3 16.1 0.00 0.28 0.25 93 1007.0
20260509040503 11 231 9.7 16.1 0.00 0.30 0.25 92 1007.0
20260509040010 11 239 11.3 12.9 0.00 0.30 0.25 92 1007.2
20260509035504 11 233 9.7 16.1 0.00 0.30 0.25 92 1007.3
20260509034510 12 225 11.3 16.1 0.00 0.30 0.25 92 1007.5
20260509033504 12 244 9.7 16.1 0.00 0.30 0.25 92 1007.6
20260509033007 12 227 11.3 16.1 0.00 0.30 0.25 92 1007.6
20260509032005 12 249 11.3 16.1 0.00 0.30 0.25 92 1007.6
20260509031004 12 245 11.3 16.1 0.00 0.30 0.25 92 1007.6
20260509030504 12 247 11.3 16.1 0.00 0.30 0.25 92 1007.7
20260509030014 12 243 11.3 17.7 0.00 0.30 0.25 91 1007.7
20260509025503 12 240 11.3 17.7 0.00 0.30 0.25 91 1007.6
20260509025004 12 233 11.3 16.1 0.00 0.30 0.25 91 1007.6
20260509024511 12 243 12.9 17.7 0.00 0.30 0.25 91 1007.6
20260509024004 12 238 11.3 17.7 0.00 0.30 0.25 91 1007.6
20260509023506 12 221 9.7 14.5 0.00 0.30 0.25 91 1007.5
20260509023016 12 238 11.3 14.5 0.00 0.30 0.25 91 1007.5
20260509021510 12 237 11.3 16.1 0.00 0.30 0.25 90 1007.7
20260509021004 12 236 11.3 16.1 0.00 0.30 0.25 90 1007.6
20260509015504 12 240 9.7 14.5 0.00 0.30 0.25 90 1007.6
20260509015005 12 241 9.7 12.9 0.00 0.30 0.25 90 1007.5
20260509014510 12 239 8.0 11.3 0.00 0.30 0.25 90 1007.5
20260509014004 12 236 8.0 11.3 0.00 0.30 0.25 90 1007.5
20260509013504 12 249 6.4 9.7 0.00 0.30 0.25 90 1007.5
20260509013013 12 248 6.4 9.7 0.00 0.30 0.25 89 1007.5
20260509012503 12 256 6.4 9.7 0.00 0.30 0.25 89 1007.5
20260509012005 12 258 8.0 9.7 0.00 0.30 0.25 89 1007.4
20260509011508 12 250 8.0 9.7 0.00 0.30 0.25 88 1007.3
20260509010504 12 243 6.4 9.7 0.00 0.30 0.25 88 1007.2
20260509005504 13 254 8.0 12.9 0.00 0.30 0.25 87 1007.0
20260509005003 13 244 9.7 16.1 0.00 0.30 0.25 86 1007.0
20260509004524 13 240 11.3 16.1 0.00 0.30 0.25 86 1007.0
20260509004004 13 255 11.3 17.7 0.00 0.30 0.25 86 1007.0
20260509003504 13 249 12.9 17.7 0.00 0.30 0.25 86 1007.0
20260509003012 13 245 12.9 20.9 0.00 0.30 0.25 86 1007.0
20260509002507 13 250 14.5 20.9 0.00 0.30 0.25 86 1007.2
20260509002003 13 239 14.5 22.5 0.00 0.30 0.25 86 1007.2
20260509001512 13 243 16.1 25.7 0.00 0.30 0.25 85 1007.3
20260509001006 13 241 17.7 25.7 0.00 0.30 0.25 85 1007.2
20260509000503 14 236 19.3 25.7 0.00 0.30 0.25 85 1007.3
20260509000011 14 246 17.7 24.1 0.00 0.30 0.25 84 1007.3
20260508235503 14 248 19.3 24.1 0.00 0.30 0.25 84 1007.3
20260508234512 14 245 16.1 22.5 0.00 0.30 0.25 84 1007.5
20260508233506 15 241 17.7 24.1 0.00 0.30 0.25 84 1007.4
20260508232505 15 244 19.3 27.4 0.00 0.30 0.25 82 1007.6
20260508232008 15 225 22.5 27.4 0.00 0.30 0.25 80 1007.6
20260508231516 15 223 19.3 30.6 0.00 0.30 0.25 81 1007.6
20260508231005 15 225 22.5 30.6 0.00 0.30 0.25 79 1007.6
20260508230503 15 231 22.5 30.6 0.00 0.30 0.25 79 1007.5
20260508230015 15 246 22.5 27.4 0.00 0.30 0.25 78 1007.5
20260508225503 15 237 19.3 29.0 0.00 0.30 0.25 77 1007.6
20260508225004 15 233 22.5 29.0 0.00 0.30 0.25 76 1007.6
20260508224510 16 234 17.7 22.5 0.00 0.30 0.25 76 1007.6
20260508223504 16 240 16.1 22.5 0.00 0.30 0.25 77 1007.7
20260508223015 16 245 16.1 20.9 0.00 0.30 0.25 77 1007.7
20260508222505 16 248 14.5 20.9 0.00 0.30 0.25 78 1007.7
20260508222008 16 241 16.1 20.9 0.00 0.30 0.25 77 1007.8
20260508221515 15 245 14.5 20.9 0.00 0.30 0.25 77 1007.8
20260508221004 15 243 12.9 20.9 0.00 0.30 0.25 79 1007.8
20260508220504 15 236 16.1 22.5 0.00 0.30 0.25 78 1007.9
20260508220016 15 258 17.7 22.5 0.00 0.30 0.25 74 1008.0
20260508215504 15 247 14.5 19.3 0.00 0.30 0.25 76 1008.0
20260508215007 15 252 14.5 20.9 0.00 0.30 0.25 75 1008.0
20260508214516 15 258 14.5 20.9 0.00 0.30 0.25 74 1008.0
20260508214006 15 254 14.5 20.9 0.00 0.30 0.25 75 1008.0
20260508213506 15 252 14.5 20.9 0.00 0.30 0.25 75 1007.9
20260508213022 15 244 16.1 22.5 0.00 0.30 0.25 75 1007.9
20260508212504 15 248 17.7 22.5 0.00 0.30 0.25 73 1007.8
20260508212005 15 266 16.1 22.5 0.00 0.30 0.25 73 1007.9
20260508211518 15 270 17.7 24.1 0.00 0.30 0.25 74 1008.0
20260508211004 15 255 17.7 24.1 0.00 0.30 0.25 74 1007.9
20260508210505 15 260 17.7 24.1 0.00 0.30 0.25 78 1007.9
20260508210018 15 250 16.1 24.1 0.00 0.30 0.25 76 1007.9
20260508205506 15 260 19.3 24.1 0.00 0.30 0.25 74 1007.8
20260508205010 15 252 17.7 22.5 0.00 0.30 0.25 76 1007.9
20260508204520 15 250 17.7 22.5 0.00 0.30 0.25 75 1007.9
20260508204005 15 253 16.1 20.9 0.00 0.30 0.25 76 1008.0
20260508203504 15 259 16.1 20.9 0.00 0.30 0.25 75 1007.9
20260508203019 15 244 16.1 20.9 0.00 0.30 0.25 75 1008.0
20260508202505 15 237 17.7 20.9 0.00 0.30 0.25 73 1007.9
20260508202005 15 238 16.1 19.3 0.00 0.30 0.25 74 1007.9
20260508201524 15 255 14.5 20.9 0.00 0.30 0.25 79 1008.0
20260508201009 15 255 17.7 20.9 0.00 0.30 0.25 75 1008.2
20260508200504 15 240 14.5 20.9 0.00 0.30 0.25 72 1008.2
20260508200022 15 225 14.5 20.9 0.00 0.30 0.25 76 1007.9
20260508195504 15 226 17.7 20.9 0.00 0.30 0.25 76 1008.1
20260508195005 15 236 16.1 20.9 0.00 0.30 0.25 78 1008.3
20260508194526 15 221 14.5 22.5 0.00 0.30 0.25 81 1008.3
20260508194006 15 238 14.5 22.5 0.00 0.33 0.25 79 1008.3
20260508193505 15 241 16.1 20.9 0.00 0.33 0.25 79 1008.5
20260508193021 15 234 16.1 20.9 0.00 0.36 0.25 79 1008.6
20260508192505 15 246 17.7 22.5 0.00 0.36 0.25 78 1008.8
20260508192003 15 252 17.7 22.5 0.00 0.36 0.25 76 1008.7
20260508191516 15 255 17.7 22.5 0.00 0.36 0.25 76 1009.0
20260508191007 15 253 17.7 22.5 0.00 0.36 0.25 78 1009.1
20260508190505 16 245 17.7 25.7 0.00 0.36 0.25 78 1009.1
20260508190017 16 251 17.7 25.7 0.00 0.36 0.25 77 1008.9
20260508185504 16 253 19.3 27.4 0.00 0.36 0.25 78 1009.1
20260508185004 16 251 22.5 27.4 0.00 0.36 0.25 77 1009.1
20260508184519 15 251 19.3 27.4 0.03 0.36 0.25 81 1009.2
20260508184004 15 255 19.3 24.1 0.08 0.36 0.25 80 1009.2
20260508183503 15 255 16.1 24.1 0.15 0.36 0.25 81 1009.1
20260508183005 15 268 17.7 24.1 0.18 0.36 0.25 79 1009.2
20260508181514 15 281 14.5 20.9 0.23 0.36 0.25 84 1009.2
20260508181004 14 247 14.5 20.9 0.23 0.36 0.25 83 1009.3
20260508180503 14 262 9.7 16.1 0.23 0.36 0.25 88 1009.3
20260508180010 13 294 11.3 14.5 0.23 0.36 0.25 87 1009.5
20260508175504 13 288 9.7 14.5 0.25 0.36 0.25 88 1009.5
20260508175005 13 282 8.0 12.9 0.25 0.36 0.25 88 1009.5
20260508174517 13 264 9.7 14.5 0.23 0.33 0.23 87 1009.6
20260508174006 13 250 11.3 16.1 0.18 0.28 0.18 85 1009.6
20260508173504 13 245 11.3 17.7 0.10 0.20 0.10 85 1009.5
20260508173034 13 250 14.5 17.7 0.08 0.18 0.08 83 1009.9
20260508172504 13 236 12.9 17.7 0.05 0.15 0.05 83 1009.9
20260508172003 13 253 12.9 19.3 0.05 0.15 0.05 83 1009.9
20260508171003 14 264 16.1 20.9 0.03 0.13 0.03 79 1010.2
20260508170504 14 256 11.3 16.1 0.03 0.13 0.03 80 1010.1
20260508170010 14 266 11.3 14.5 0.03 0.13 0.03 80 1010.1
20260508165004 14 267 11.3 14.5 0.00 0.10 0.00 79 1010.0
20260508164517 14 271 11.3 16.1 0.00 0.10 0.00 79 1009.9
20260508164004 14 276 11.3 19.3 0.00 0.10 0.00 77 1010.0
20260508163504 15 271 14.5 22.5 0.00 0.10 0.00 77 1009.9
20260508163021 15 271 17.7 25.7 0.00 0.10 0.00 74 1010.1
20260508162505 15 264 19.3 25.7 0.00 0.10 0.00 73 1010.2
20260508162007 15 265 22.5 29.0 0.00 0.10 0.00 68 1010.2
20260508161529 16 273 20.9 29.0 0.00 0.10 0.00 66 1010.2
20260508161003 16 286 20.9 29.0 0.00 0.10 0.00 67 1010.2
20260508160504 16 272 24.1 32.2 0.00 0.10 0.00 66 1010.3
20260508155503 16 270 22.5 35.4 0.00 0.10 0.00 66 1010.4
20260508154509 16 269 29.0 38.6 0.00 0.10 0.00 65 1010.7
20260508154006 16 276 27.4 37.0 0.00 0.10 0.00 65 1010.8
20260508153014 16 269 24.1 33.8 0.00 0.10 0.00 66 1010.6
20260508152506 16 253 24.1 33.8 0.00 0.10 0.00 66 1010.6
20260508152007 16 269 22.5 32.2 0.00 0.10 0.00 65 1010.3
20260508151520 16 255 22.5 32.2 0.00 0.10 0.00 64 1010.2
20260508151011 16 254 24.1 30.6 0.00 0.10 0.00 65 1010.3
20260508150514 16 262 22.5 30.6 0.00 0.10 0.00 66 1010.4
20260508150009 16 268 22.5 32.2 0.00 0.10 0.00 69 1010.4
20260508145502 16 274 27.4 32.2 0.00 0.10 0.00 66 1010.5
20260508145004 16 257 24.1 29.0 0.00 0.10 0.00 67 1010.5
20260508144004 15 246 19.3 29.0 0.00 0.10 0.00 70 1010.6
20260508143505 15 248 24.1 30.6 0.00 0.10 0.00 70 1010.6
20260508142010 14 231 22.5 33.8 0.00 0.10 0.00 73 1010.6
20260508141516 14 244 20.9 33.8 0.00 0.10 0.00 72 1010.6
20260508141005 14 214 22.5 27.4 0.00 0.10 0.00 73 1010.6
20260508140506 13 238 22.5 29.0 0.00 0.10 0.00 73 1010.6
20260508140026 13 227 22.5 29.0 0.00 0.10 0.00 74 1010.7
20260508135508 13 234 20.9 27.4 0.00 0.10 0.00 75 1010.7
20260508135008 13 236 20.9 27.4 0.00 0.10 0.00 76 1010.7
20260508134508 13 231 19.3 27.4 0.00 0.10 0.00 77 1010.7
20260508134004 13 226 19.3 25.7 0.00 0.10 0.00 77 1010.8
20260508133507 12 229 20.9 25.7 0.00 0.10 0.00 75 1010.8
20260508132505 12 209 17.7 25.7 0.00 0.10 0.00 76 1010.8
20260508130024 11 161 12.9 17.7 0.00 0.10 0.00 79 1011.0
20260508125507 11 157 11.3 14.5 0.00 0.10 0.00 80 1011.1
20260508125008 11 166 11.3 14.5 0.00 0.10 0.00 80 1011.1
20260508124523 11 154 11.3 14.5 0.00 0.10 0.00 81 1011.2
20260508124009 11 145 9.7 12.9 0.00 0.10 0.00 82 1011.2
20260508123510 11 146 9.7 12.9 0.00 0.10 0.00 82 1011.3
20260508123010 11 172 8.0 11.3 0.00 0.10 0.00 82 1011.3
20260508122503 10 159 8.0 9.7 0.00 0.10 0.00 84 1011.3
20260508122006 10 162 4.8 9.7 0.00 0.10 0.00 85 1011.4
20260508121006 10 154 1.6 3.2 0.00 0.10 0.00 86 1011.4
20260508120507 10 130 1.6 4.8 0.00 0.10 0.00 85 1011.4
20260508120017 10 141 1.6 8.0 0.00 0.10 0.00 85 1011.3
20260508115509 10 113 3.2 12.9 0.00 0.10 0.00 85 1011.0
20260508114521 10 169 8.0 12.9 0.00 0.10 0.00 85 1010.9
20260508114008 9 141 8.0 12.9 0.00 0.10 0.00 86 1010.9
20260508113507 9 159 8.0 12.9 0.00 0.10 0.00 87 1010.8
20260508113025 9 165 9.7 14.5 0.00 0.10 0.00 87 1010.9
20260508112508 8 167 11.3 14.5 0.00 0.10 0.00 87 1010.8